ROMMA est une association bénévole à but non lucratif. Votre soutien est indispensable : ADHERER à ROMMA ou FAIRE un DON

Voiron - (38, Isère)

Voironnais (300 m)   Longitude: 05° 35' E   Latitude: 45° 23' N Station partenaire n°109
 

Détail journalier du     <<     >>

Température Precipitation Humidité Pression Vent Dir Rafale Dir. rafale Ensol.
Heure (°C) (mm) (%) (hPa) (km/h) (km/h) (min)
01:00 8.4069102903NNO0
02:00 7.7072102903NNO0
03:00 7.1074102803NNO0
04:00 6.4075102803NNO0
05:00 5.8078102803NNO0
06:00 5.5079102805NNO0
07:00 5.308010281NNO3NNO0
08:00 8.307010281NE6S30
09:00 11.405910281E10SSE60
10:00 12.005510279S19SSE60
11:00 13.804910265SSE15SSE60
12:00 15.404710266SE16SSE60
13:00 16.904110256SE16S60
14:00 17.904010246SSO16OSO60
15:00 18.604110236SSO23S60
16:00 18.803910229SSO18S60
17:00 18.804010229SSO21SSO60
18:00 18.204110228SSO23SSO60
19:00 16.904410224SO15SSO30
20:00 15.005210231OSO3OSO0
21:00 13.105610231OSO3OSO0
22:00 11.605910232OSO5OSO0
23:00 10.506310232NO3NO0
minuit 9.4066102305NO0

Graphique du 30-03-2019

 

Serveur OMMA